FENGYUN 1C DEB, 38817

Orbit data source: Space-Track

FENGYUN 1C DEB, 38817 is space debris in SSO originally from a launch on Mon, 10 May 1999 UTC launched from the Taiyaun Space Center, China (TSC). Fengyun 1C debris stems from the Chinese weather satellite Fengyun-1C, which was intentionally destroyed by a Chinese anti-satellite missile in 2007. This event dramatically increased the amount of space debris, with thousands of trackable fragments posing hazards to satellites and human spaceflight. The Fengyun 1C debris cloud has become a focal point in discussions about space sustainability and the need for international regulations to prevent the creation of new debris.

Loading next visibility...
Identifier
38817, 1999-025EVH
Orbit
SSO
Country
Flag of CNCN / PRC
Related business
Manufacturer
Unknown
Mission
Spacecraft
Bus & Motor
Unknown
Mass
Unknown
Launch date (UTC)
1999-05-10 (26 years ago)
Launch vehicle
Unknown
Launch site
Taiyaun Space Center, China (TSC)
Object type
Payload
Rocket body
Debris
Shape & HBR
Unknown shape, 0.1 m
Radar Cross Section
Small (<0.1 m²)

Expand to show TLE details & history
Last TLE update: 6 days ago

TLE from 6 days ago
0 FENGYUN 1C DEB
1 38817U 99025EVH 25305.38553161  .00001468  00000-0  15997-2 0  9991
2 38817  98.6012 180.8259 0288653 152.2576 209.4305 13.57503552652730
Epoch: 2025-11-01T09:15Z
TLE epoch observation values (Epoch: 2025-11-01T09:15:09.931Z)
Latitude
-0.00004°
Longitude
1.11816°
Altitude
1,235.704 km
Speed
7.145 km/s
True Right ascension
12h 03m 18s
True Declination
0° 00' 00"
Sunlit
Object was in daylight at epoch
Visualization orbit readout
Latitude
Unknown
Longitude
Unknown
Altitude
Unknown
Speed
Unknown
Apparent Right ascension
Unknown
Apparent Declination
Unknown
Sunlit
N/A
Visualization observer readout
Local Sidereal Time
19:04:03
Azimuth
Unknown
Elevation
Unknown
Doppler factor
Unknown
Orbital elements
Apogee altitude
1,256.198 km
Perigee altitude
827.828 km
Semi-major axis
7,420.15 km
Eccentricity
0.02887
Inclination
98.6012°
RAAN
180.8259°
Arg. of periapsis
152.2576°
True anomaly
207.85497°
Mean anomaly
209.4305°
Eccentric anomaly
208.63785°
Mean motion
3.39566 °/min
Orbital period
106.02 mins
BSTAR
0.0015997
Loading maneuver chart data...
Computing Atmospheric mass density...

Documentation

Showing up to 5 results
|